Flag for France Weather past 2 weeks in Boulogne-Billancourt, France

Now
45 °F

Passing clouds.


Feels Like: 42 °F
Forecast: 42 / 48 °F
Wind: 5 mph from West

Location: Paris-Orly

Current Time: Dec 20, 2014 at 1:28:50 AM

Latest Report: Dec 20, 2014 at 1:00 AM


Visibility: N/A

Pressure: 30.33 "Hg

Humidity: 76%

Dew point: 37 °F

Location of Boulogne-BillancourtLocation

Historic Weather in Boulogne-Billancourt — Graph

°F

Boulogne-Billancourt temperature yesterday

Maximum temperature yesterday: 54 °F (at 4:00 AM)
Minimum temperature yesterday: 46 °F (at 10:30 PM)
Average temperature yesterday: 52 °F

Past Weeks' High & Low Weather Summary

 TemperatureHumidityPressure
High57 °F (Dec 18, 12:00 PM)100% (Dec 7, 3:08 AM)30.45 "Hg (Dec 7, 3:08 AM)
Low28 °F (Dec 7, 5:00 AM)62% (Dec 16, 3:00 PM)29.59 "Hg (Dec 12, 2:30 PM)
Average43 °F88%30.07 "Hg
* Reported Midnight between Dec 4 and Dec 5 — Dec 20 12:30 AM, Boulogne-Billancourt, Weather by CustomWeather, © 2014

Note: Actual official high and low records may vary slightly from our data, if they occured in-between our weather recording intervals... More about our weather records

Advertising

Boulogne-Billancourt weather history for previous 24 hours

 ConditionsComfort  
Time TempWeatherWind HumidityBarometerVisibility
12:30 AM
Dec 20
45 °FPassing clouds.5 mph76%30.33 "HgN/A
12:00 AM46 °FPassing clouds.5 mph76%30.33 "HgN/A
11:30 PM
Dec 19
46 °FPassing clouds.6 mph76%30.33 "HgN/A
11:00 PM46 °FPassing clouds.5 mph76%30.33 "HgN/A
10:30 PM46 °FPassing clouds.5 mph76%30.30 "HgN/A
10:00 PM48 °FPassing clouds.8 mph76%30.30 "HgN/A
9:30 PM48 °FPassing clouds.5 mph71%30.27 "HgN/A
9:00 PM48 °FPassing clouds.5 mph66%30.27 "HgN/A
8:30 PM48 °FPassing clouds.8 mph71%30.27 "HgN/A
8:00 PM48 °FPassing clouds.10 mph76%30.24 "HgN/A
7:30 PM50 °FPassing clouds.10 mph76%30.24 "HgN/A
7:00 PM50 °FPartly cloudy.8 mph82%30.21 "HgN/A
6:30 PM50 °FPassing clouds.7 mph82%30.21 "HgN/A
6:00 PM50 °FLight rain. Passing clouds.14 mph88%30.15 "HgN/A
5:30 PM52 °FPassing clouds.9 mph94%30.12 "HgN/A
5:00 PM54 °FLight rain. Partly cloudy.12 mph88%30.12 "HgN/A
4:30 PM54 °FLight rain. Partly sunny.14 mph94%30.09 "Hg2 mi
4:00 PM54 °FLight rain. Partly sunny.14 mph94%30.09 "HgN/A
3:30 PM54 °FLight rain. Partly sunny.14 mph94%30.09 "Hg6 mi
3:00 PM54 °FLight rain. Partly sunny.14 mph94%30.09 "HgN/A
2:30 PM54 °FLight rain. Partly sunny.15 mph88%30.09 "Hg5 mi
2:00 PM54 °FPartly sunny.17 mph88%30.09 "HgN/A
1:30 PM54 °FPartly sunny.17 mph88%30.09 "HgN/A
1:00 PM54 °FPartly sunny.17 mph88%30.09 "HgN/A
12:30 PM54 °FLight rain. Partly sunny.17 mph88%30.09 "HgN/A
12:00 PM54 °FLight rain. Partly sunny.17 mph88%30.12 "HgN/A
11:30 AM54 °FLight rain. Partly sunny.17 mph82%30.12 "HgN/A
11:00 AM54 °FLight rain. Partly sunny.17 mph82%30.12 "HgN/A
10:30 AM54 °FLight rain. Partly sunny.13 mph82%30.12 "HgN/A
10:00 AM54 °FPartly sunny.16 mph82%30.12 "HgN/A
9:30 AM54 °FPartly sunny.15 mph77%30.09 "HgN/A
9:00 AM54 °FPartly sunny.15 mph77%30.09 "HgN/A
8:30 AM54 °FPassing clouds.15 mph77%30.09 "HgN/A
8:00 AM54 °FPassing clouds.14 mph77%30.09 "HgN/A
7:00 AM54 °FPassing clouds.13 mph77%30.09 "HgN/A
6:30 AM54 °FPassing clouds.14 mph77%30.09 "HgN/A
6:00 AM54 °FPassing clouds.16 mph77%30.09 "HgN/A
5:30 AM54 °FPassing clouds.15 mph77%30.09 "HgN/A
5:00 AM54 °FPassing clouds.14 mph77%30.09 "HgN/A
4:30 AM54 °FPassing clouds.13 mph82%30.12 "HgN/A
4:00 AM54 °FPassing clouds.9 mph82%30.12 "HgN/A
3:30 AM52 °FPassing clouds.12 mph88%30.12 "HgN/A
3:00 AM52 °FPassing clouds.13 mph88%30.12 "HgN/A
2:30 AM52 °FPassing clouds.14 mph88%30.12 "HgN/A
2:00 AM52 °FPassing clouds.12 mph88%30.15 "HgN/A
1:30 AM52 °FPassing clouds.12 mph88%30.15 "HgN/A
1:00 AM52 °FPartly cloudy.13 mph88%30.15 "HgN/A
Weather by CustomWeather, © 2014

See weather overviewHow to use our weather pages